Вернуться в каталог

STARLINK-36691

АктивенСвязьSSO
NORAD 67735·PAYLOAD·🇺🇸 United States

Запущен Feb 11, 2026 с Vandenberg Space Force Base

Loading…

Ближайшие Пролёты (ближайшие 24 часа)

TLE

СвежийSource: CelesTrak SupGP

Эпоха: Sep 15, 2026, 02:42 UTC

1 67735C 26026Q   26258.11298611 -.00000934  00000+0 -28991-4 0  2584
2 67735  97.2848 310.0455 0000996  89.6088  12.3229 15.33441754    16

Отслеживайте STARLINK-36691 в реальном времени с AllMySat

Download on the App Store